User: anonymous   Login
Location: Unspecified
(0.0000°N, 0.0000°E)
Time: 16:14:51
(UTC+00:00)
Language:

TEN-KOH - Orbit

View from above orbital plane
View from above orbital plane
View from above satellite
View from above satellite

Ground track
Ground track

The orbit data is extracted from the following two-line orbital elements,

1 43677U 18084G   21334.13631881  .00000407  00000-0  47394-4 0  9994
2 43677  97.9406  97.8162 0015413 204.0928 155.9571 14.90603293167987
Epoch (UTC): 30 November 2021 03:16:17
Eccentricity: 0.0015413
inclination: 97.9406°
perigee height: 585 km
apogee height: 607 km
right ascension of ascending node: 97.8162°
argument of perigee: 204.0928°
revolutions per day: 14.90603293
mean anomaly at epoch: 155.9571°
orbit number at epoch: 16798

The dashed part of the orbit path shows where the satellite is in the earth's shadow,  

DLR